TIMESTAMP,CO2_1_1_1,H2O_1_1_1,TAU_1_1_1,TAU_SSITC_TEST_1_1_1,H_1_1_1,H_SSITC_TEST_1_1_1,LE_1_1_1,LE_SSITC_TEST_1_1_1,FC_1_1_1,FC_SSITC_TEST_1_1_1,WD_0_0_1,WS_0_0_1,WS_MAX_0_0_1,U_SIGMA_0_0_1,V_SIGMA_0_0_1,W_SIGMA_0_0_1,USTAR_0_0_1,MO_LENGTH_0_0_1,ZL_0_0_1,FETCH_MAX_0_0_1,FETCH_70_0_0_1,FETCH_80_0_0_1,FETCH_90_0_0_1,PA_0_0_1,RH_0_0_1,TA_0_0_1,VPD_0_0_1,T_SONIC_0_0_1,T_SONIC_SIGMA_0_0_1
[yyyymmddHHMMSS],[mmolCO2 mol-1],[mmolH2O mol-1],[kg m-1 s-2],[#],[W m-2],[#],[W m-2],[#],[umolCO2 m-2 s-1],[#],[Decimal degrees],[m s-1],[m s-1],[m s-1],[m s-1],[m s-1],[m s-1],[m],[#],[m],[m],[m],[m],[kPa],[%],[deg C],[hPa],[deg C],[deg C]
20240325003000,420.18863643438698,4.2977682596935196,0.78511148754674875,0,-17.554925878335471,0,0.90456328589663693,1,1.3819023936574251,0,91.484575474013582,4.0465585109090672,10.595066564028107,1.7580330472516998,1.3755972881374032,0.95818668390967698,0.80195713895390897,2456.6909574504330,7.7339805165067659E-003,108.59647317920846,198.54898804028974,237.61242856510538,297.46256444701152,94.417654964415235,90.416666666666671,-4.1356666666666797,0.43021028155025987,-3.7806865845201401,7.7397237418190892E-002
20240325010000,420.33106018592383,4.3127598992488343,1.0446904948368028,0,-15.664063040112726,0,0.78105123886042205,1,1.9954967186510839,0,100.49509321097888,4.1874297535882929,10.530683712924105,1.8791623780853781,1.5162216084193121,1.0553450254203594,0.92533183300509902,4229.7555924464677,4.4919853132720849E-003,112.71386139117894,206.07688686538967,246.62140080656260,308.74072864977984,94.426565670409403,89.586666666666673,-3.9653333333333194,0.47349167467768044,-3.6214299838101169,7.2464680766335277E-002
20240325013000,420.59059029839375,4.4038553097184341,0.85902794474183308,0,-21.552125516899501,0,-3.4258688661652621,1,1.4104267661094096,0,107.28277766352639,3.4289998952556520,11.170035778791913,1.6221126879582251,1.2454417322288327,0.95552798028710728,0.83898946101604066,2291.8442368686801,8.2902667181079803E-003,112.84059750219951,206.30860089674476,246.89870332150528,309.08787849257453,94.448535063151041,91.566666666666663,-3.9750000000000227,0.38318333141194844,-3.6089609103732414,7.1129377262836371E-002
20240325020000,420.67556270711486,4.4599413416226890,0.80704585288656872,0,-24.357249597630958,0,-0.85927074640984058,2,1.3692524995146509,0,112.79036252503595,3.4035623566852373,9.3341852907535134,1.5722207171814639,1.2718089669777741,0.95502260049724197,0.81335146728087804,1847.9342096841031,1.0281751320166304E-002,110.12009667713829,201.33465772929668,240.94616371288072,301.63600525662252,94.469745220920146,91.719999999999999,-3.8256666666666774,0.38045619564545180,-3.4402702526516009,9.0370581286539270E-002
20240325023000,420.77593225275308,4.5277363611645383,0.69624879178666499,0,-24.934147998894666,0,-1.3457316960282089,1,1.3810560891502783,0,113.24212532853137,3.7140697709066628,11.540149347759446,1.6704256568881160,1.3269000908494901,0.95355155349365828,0.75566870546388765,1447.8132528687386,1.3123239452569492E-002,103.95483827271542,190.06259905769505,227.45638840692891,284.74840732854142,94.478031567274300,91.973333333333329,-3.6600000000000250,0.37342358824039934,-3.2735895375145674,8.6548446638960747E-002
20240325030000,420.80440192619386,4.5743622077096990,0.93199428179430877,0,-23.355788374650611,0,1.1007145912362204,1,1.7244787588964459,0,113.47937733939264,3.8610917352425402,9.3417630728447492,1.6437285004574043,1.3202454496814273,1.0303498321229505,0.87467772022235202,2396.4566779169413,7.9283719898142549E-003,109.83622233600603,200.81564489662944,240.32503790990512,300.85842945676615,94.448523351345472,91.856666666666669,-3.5103333333333353,0.38311903697922672,-3.1367202267117023,7.3306354981994171E-002
20240325033000,420.84043034178154,4.6110555400249060,0.79880608370953166,0,-17.811051157551116,0,1.3142332416070670,1,1.4267802904466536,0,109.55184863274283,3.9896189852241437,10.191411470369980,1.6465075972923486,1.3604566826052045,0.99280075369860488,0.80998577337254996,2494.9143803804018,7.6154917977999123E-003,106.40134897071917,194.53560088821294,232.80942917745074,291.44977915830890,94.415116650547986,92.256666666666661,-3.4663333333333526,0.36550099426089278,-3.0859668193756988,6.5883236600065495E-002
20240325040000,420.99197822445626,4.6292316695650886,0.73965064579187678,0,-21.544325380267288,0,0.27774933481876091,2,1.2867761422668871,0,114.50293567223163,3.6325625227245117,9.3226740485045649,1.5478890841625572,1.2793122727137380,0.96504024587587423,0.77955267399650607,1838.5544169919847,1.0334205952459895E-002,105.55891847126385,192.99536925578133,230.96616529407797,289.14223150597559,94.402454748263892,92.223333333333329,-3.4106666666666570,0.36860510946732861,-3.0270904926723574,6.9434149425210243E-002
20240325043000,421.11303785736931,4.6624489067517816,0.65010453706210003,0,-21.917902942573562,0,-1.3112241747267990,1,1.2409445820587843,0,113.77962188590735,3.7768929759357266,10.213121398214945,1.4530141942656825,1.2204826328993565,0.92754058984294363,0.73098251744293219,1489.9892812931923,1.2751769585556690E-002,103.49375704027443,189.21959551047618,226.44752846701815,283.48543439944865,94.398011783637159,92.276666666666671,-3.3233333333333235,0.36847352856230203,-2.9474858864678026,6.8080735214590335E-002
20240325050000,421.34211518253863,4.6996453974110262,0.92242006833352275,0,-23.743616971833422,0,-0.28618146364115249,2,1.1728460873125088,0,111.80052968784311,3.4602059891100923,9.7616175030062724,1.6725788886491288,1.1613166757012485,0.94530610488630318,0.87093084000142329,2325.8248445125505,8.1691448282650223E-003,117.26917374214634,214.40545068531651,256.58856455413462,321.21843491506337,94.370267573350688,92.666666666666671,-3.2773333333333312,0.35107074505153946,-2.8886226586235466,7.3725186235646209E-002
20240325053000,421.56850513696469,4.7115105995796842,0.69082054886464850,0,-15.850266787461393,0,2.4050064908064517,1,1.4314599036075744,0,119.42437853770684,3.8028536581598855,9.6298611053849754,1.5565929041149860,1.2644758326090635,0.89746683879466360,0.75389829546536691,2259.9042880859270,8.4074357043202250E-003,108.91567329775251,199.13258766064459,238.31084825724730,298.33690302407757,94.374493930555559,91.879999999999995,-3.1286666666666747,0.39306677029514275,-2.7539052251179896,6.9771872235860288E-002
20240325060000,421.77016151217794,4.7592296417110278,0.68196192919317355,0,-18.068457404470514,0,-0.19374098397452241,1,1.2745853539047465,0,112.05494716281616,3.6725900334557933,9.7991179048559225,1.5464475582541291,1.2727849621333591,0.90614420051140787,0.74929157495009990,1945.9708961400113,9.7637637015476533E-003,107.55181088747152,196.63901219304529,235.32667529059179,294.60107258467121,94.347925190972219,92.136666666666670,-3.0346666666666806,0.38331841531181965,-2.6591468268500194,6.5774503418675190E-002
20240325063000,421.94458107517534,4.8124035708998365,0.68266658848523332,0,-15.803601021359730,0,-2.0839545870164025,1,0.96036839810617136,0,113.81135970159315,3.5183435213282857,9.4829512223683228,1.4697038058127676,1.1948196602756165,0.88135163318009335,0.74981781407310855,2229.1660992478232,8.5233666555449041E-003,110.02721802579681,201.16484593251792,240.74294236267463,301.38159624128718,94.324335518229177,92.953333333333333,-3.0073333333333494,0.34420805876653959,-2.6192945887247561,5.9945534369232632E-002
20240325070000,422.07016246634521,4.8468861208888923,0.80392981377590478,0,-20.834793423548888,0,-1.7102242830526921,1,1.4139106131406842,0,114.59830633994132,3.8065332631484488,10.645084115915084,1.5869701444912607,1.2344125141714815,0.93214728098679345,0.81384251482833059,2161.9530260925212,8.7883500569576629E-003,112.33098546774984,205.37686756534859,245.78365649183738,307.69197217810057,94.318335019493276,93.066666666666663,-2.9286666666666861,0.34066172553535123,-2.5412402962185183,7.1922518648066647E-002
20240325073000,422.10181044710464,4.8891617910796272,0.87954583092034810,0,-22.293586487309682,0,-1.3980927945086830,1,1.6886418668531797,0,116.55342496858762,3.8425336131530403,10.840958459311800,1.6004324301139989,1.2235708430146623,0.99036996349225659,0.85157423235576624,2314.2360291299747,8.2100528039669978E-003,110.96728001380221,202.88357906398531,242.79982695047417,303.95657166640785,94.288583421161377,93.070000000000007,-2.8166666666666629,0.34334720789921053,-2.4247781810554443,7.6311999525368671E-002
20240325080000,422.05442067167712,4.9457222842146198,0.87814751667804969,0,-22.774910990803878,0,-1.1130420776960608,2,1.7972095140448670,0,117.04749653507683,3.9843059781021317,9.7161201571695734,1.6754404209708647,1.2995595466757079,1.0199920531228273,0.85117185659537242,2261.8137069035288,8.4003381631334289E-003,108.34060930896430,198.08118728188748,237.05259053527865,296.76171366646582,94.269463664930569,93.333333333333329,-2.7026666666666870,0.33311117756297054,-2.3057861200967977,7.6415273096612307E-002
20240325083000,421.89755524282435,5.0210730738949252,0.94644413001157368,0,-20.095922700149597,0,0.98890283077549812,2,1.8682822346984358,0,115.88159065246388,4.1151164454526468,9.7812705012390015,1.7278717138710913,1.3858673914817066,1.0459056228908654,0.88403994125020080,2871.1365633828582,6.6175883941980238E-003,109.45570716752417,200.11994180955608,239.49245899972604,299.81613945862949,94.232508726779514,93.849999999999994,-2.5786666666666633,0.31013773682152473,-2.1640877482096244,7.6013650104228891E-002
20240325090000,421.76874801868263,5.0489518511320615,1.0458896966553066,0,-22.282790939632093,0,0.20440939462232896,2,2.1545949198905721,0,112.52612643829642,4.5591812416187540,11.801107792871376,1.7863449916943783,1.4500631010251837,1.0524291919632400,0.92973504451547473,3010.8279605878038,6.3105565142588327E-003,113.39344557905795,207.31938350309258,248.10835194382381,310.60221502559000,94.180668999565967,93.709999999999994,-2.4913333333333298,0.31925976307624920,-2.0702463395860491,7.3594007089782934E-002
20240325093000,421.78153894076740,5.0766378875880385,1.1637143239015697,0,-21.990740293059559,0,0.13356276781110041,1,2.1921730056071778,0,109.39539165876454,4.1767360588024944,11.244301941406462,1.8437287808299501,1.4195715373904758,1.0445475129149779,0.98101321831177057,3582.5553317543436,5.3034770549366169E-003,119.08367469088920,217.72293712501440,260.55874852459368,326.18863412690968,94.128508723524320,94.060000000000002,-2.4753333333333671,0.30185287365111152,-2.0472990798949695,7.2222253141586826E-002
20240325100000,421.65788230127140,5.0895848491319153,0.99498257195613482,0,-16.805948913182508,0,0.79833917026161905,1,2.0110484774403830,0,107.49475649074465,3.9387368106680691,9.6726320817849487,1.7240308230194699,1.3371053399871644,1.0077597302868304,0.90729764632284249,3707.7139719132788,5.1244513853897682E-003,115.12486319235884,210.48496710753179,251.89674701700366,315.34483610989804,94.101388515190976,94.039999999999992,-2.4420000000000073,0.30361869496564398,-2.0106642943488282,6.9712880039158903E-002
20240325103000,421.64979187314191,5.1165578208660003,0.68649488102480760,0,-10.503099327317381,0,0.32057419962456363,1,1.3688955378929673,0,104.36745547340826,3.6178158337839159,8.6552566538663633,1.4030237873103955,1.2361690278092252,0.90648191152808955,0.75372526290502118,3401.4431506173978,5.5858643401261315E-003,108.02842478448096,197.51041440498454,236.36952117905273,295.90659188842943,94.107227532769102,93.989999999999995,-2.3626666666666551,0.30797124378364460,-1.9485567991468429,5.9401080161422579E-002
20240325110000,421.63204478424535,5.1170415915536802,0.53271989965068123,0,-17.279311999136887,0,2.3300823955142764,2,1.4562587029194878,0,105.09745040320493,3.3213613177528583,8.4433842051744641,1.3275393789020462,1.1298248713339663,0.86944191889486999,0.66396657532081771,1413.3435742398399,1.3443298817287976E-002,100.92050460311285,184.51486935857332,220.81717286701598,276.43689731054661,94.105421181423623,94.013333333333335,-2.3650000000000091,0.30672254236773255,-1.9565950571695794,6.6436594481841416E-002
20240325113000,421.50548354419783,5.0446657262795451,0.80479119032616508,0,-16.311338954204743,0,-3.0986763028261981,1,1.5989107182943494,0,106.17090449370212,3.6477181724086107,9.6840404833867382,1.6177164733834646,1.2835259126342138,0.94760647348961946,0.81618997721218012,2781.0717221998971,6.8318985980593576E-003,111.11827494075037,203.15964594780851,243.13020850194462,304.37017016434777,94.104589584418406,92.196666666666673,-2.2939999999999827,0.40190611827974637,-1.9016611641777672,6.7401407691776008E-002
20240325120000,421.45445988262111,4.9810621885071198,0.84143840614963450,0,-13.566080314198700,0,4.1853507173564584,1,1.7400772259631818,0,102.18270423134257,3.6653117858437954,12.316223929209031,1.6214523697008516,1.2696128120931247,0.91283361166074417,0.83457352563354281,3574.6883163424254,5.3151487118856151E-003,116.55027016340536,213.09106566084139,255.01558137845728,319.24924663608925,94.097090522352431,91.096666666666664,-2.3043333333333180,0.45821023510114856,-1.9204611129760565,6.5027470483344507E-002
20240325123000,421.34511957435916,4.9479926788188493,0.89760890578382047,0,-18.198609259710746,0,2.5619032708659808,1,1.7355739627882232,0,102.86023266322289,3.6690596430636213,10.830616637943629,1.6188682466692659,1.2622365465351726,0.96642276792750625,0.86171855813901721,2933.4730368390610,6.4769642541092822E-003,114.23877418279980,208.86491379446292,249.95795696864982,312.91770103455559,94.105664248946013,91.416666666666671,-2.4403333333333421,0.43731249803327216,-2.0660124913396771,7.5746868649081908E-002
20240325130000,421.10133252719686,4.9068041431533755,1.0601419735983730,0,-4.3828057981848207,0,-0.26648417474653247,2,2.1499277717795273,0,96.741173318471425,4.0751969757206234,10.413991101238130,1.7400509249554363,1.3628457172730659,1.0807044259289742,0.93674676951924674,15640.992501377084,1.2147566721438666E-003,111.68301225132623,204.19216586526844,244.36587113387756,305.91707315046580,94.053744843914984,90.590000000000003,-2.4379999999999882,0.47951330109092338,-2.0657803370676220,5.8802138509024396E-002
20240325133000,420.83871050542450,4.8412678740487065,1.1352589235710420,0,-9.6080779318995368,0,3.2557731587515737,1,2.6143224847621247,0,93.577512510551230,4.4473713230325380,12.548888951223370,1.9284589920159070,1.4898119989544776,1.0956075449863751,0.96972984693929720,7913.0219390144730,2.4011054368903158E-003,113.56682871209240,207.63638316799361,248.48771957986622,311.07713828851377,94.017588193359373,88.646666666666661,-2.3319999999999936,0.58310354006649900,-1.9707183456420694,7.1918898973503412E-002
20240325140000,421.02949956680339,4.8932951372023625,1.2782899725677197,0,9.9909117400237371,0,9.3663901897469319,1,2.6730562551663906,0,91.561660550222399,4.4849962849315048,11.773399673854518,1.9324833545541074,1.4427475053145231,1.1169071701997135,1.0293299169212387,-9097.8083001313989,-2.0884150746202888E-003,117.29646207597618,214.45534246272516,256.64827226915503,321.29318188909372,93.971416143012149,89.343333333333334,-2.3000000000000114,0.54862158654182569,-1.9673768683539379,7.0615516988939447E-002
20240325143000,421.17819026598676,4.8805521832402512,1.3597638689465099,0,12.812215346821731,0,2.4607517199169435,1,2.9909183291683590,0,94.251672089983686,4.8761189846704660,10.709425909545203,2.0427850885918541,1.5558782965548117,1.1827197736654391,1.0617874492912207,-7786.2159133539089,-2.4402097516219223E-003,114.86282242460624,210.00587301046360,251.32339374515280,314.62706585011506,93.959428821397566,88.776666666666671,-2.2509999999999764,0.57989429377623591,-1.9000596669514493,9.8272953389523632E-002
20240325150000,420.98441161360239,4.8519187475389032,1.6016069870476546,0,45.735073591512496,0,0.43212627302926959,2,2.8006606908182414,0,94.629469480546433,4.3635891699084457,13.036976988154414,2.1155588197278030,1.6075916232436931,1.2577626315638042,1.1531346605365136,-2793.4197244479419,-6.8016989476062115E-003,116.80998568508582,213.56590846649047,255.58384694027447,319.96064768663973,93.931583107855900,86.343333333333334,-1.9586666666666588,0.72103697985255732,-1.6177666710747189,0.10166032980837401
20240325153000,420.80671557136100,4.8220104874404637,1.1507827208233754,0,32.359991876408827,0,1.0661622952065344,1,2.4658443186706585,0,94.979893198906112,4.3820307174294530,11.549044800601234,1.8760712875782302,1.5068680106640560,1.1261951499032321,0.97791466605598809,-2408.0563177365643,-7.8901809148130379E-003,111.84195377920511,204.48276167003138,244.71364009297466,306.35243861948942,93.939851409939237,84.066666666666663,-1.6789999999999736,0.85877088710021554,-1.3479124560885793,0.11523053410734040
20240325160000,420.76601394275428,4.8177924892892445,1.2293870667038533,0,17.569518834893771,0,7.1517557794375453,0,2.4695703216770295,0,92.279578877978238,4.1606999234192639,11.536457660746743,1.9239268526762887,1.5342722480845699,1.0803432754242275,1.0112400969075406,-4903.3758251936379,-3.8748814444076753E-003,118.76511857006761,217.14051493788875,259.86173791930645,325.31605955937732,93.915417739149305,82.823333333333338,-1.4920000000000186,0.93861533760555405,-1.1578829828898165,6.5023896079253907E-002
20240325163000,420.90206356437437,4.8033661456840901,0.82436644090513522,0,13.565058968209453,0,6.3994248934813802,1,1.6504093719910911,0,97.115764736656203,3.9351446594201254,10.394915163308831,1.7873299657214055,1.3311682376227034,0.91585514382429167,0.82820695406904643,-3489.4200749354318,-5.4450308624282148E-003,115.53260527791282,211.23044968259279,252.78889926044533,316.46170485205056,93.935513718750002,81.713333333333338,-1.3463333333333480,1.0100284533745372,-1.0067012752956543,9.0771610294933261E-002
20240325170000,420.96265725661164,4.8549231545531937,1.1611731722249374,0,81.903490551638342,0,26.789028802299079,0,1.7474313878169974,0,88.264387287858511,3.5086847345009611,10.401621692471679,1.8048778705768838,1.4076484517056274,1.0446839425823642,0.98400132422440123,-968.68278007929371,-1.9614264226359750E-002,119.36129186986754,218.23050986964478,261.16618346402839,326.94907059022984,93.854692154513884,80.443333333333328,-0.99900000000002365,1.1080506281325870,-0.68959018029102026,0.20216046045872160
20240325173000,421.82149281337360,4.9406519617068199,0.85217673538697247,0,35.349413489546478,0,8.4091340133633139,0,1.8676213741029146,0,94.577309498692088,3.2549625232629320,10.661079874381436,1.6992039239289785,1.3476233006342784,0.95216681030049410,0.84378127396598501,-1414.1149733062682,-1.3435965503976735E-002,113.67589304709530,207.83578755666449,248.72635570451376,311.37588239897980,93.755782118586083,80.424333333333337,-0.77100000000001501,1.1277891021658337,-0.45611193059534116,9.8938933329667231E-002
20240325180000,421.63690811322164,4.9371746669070689,0.85320090813394522,0,23.292355834434147,0,6.3800971394384947,1,2.0868665657926826,0,100.04165444421345,3.8672608051362189,10.401979744875737,1.8477735975661986,1.4388162482677693,1.0676885765620332,0.84395517611345550,-2148.3705288856272,-8.8439120461475586E-003,103.74202662857138,189.67351149940703,226.99074997400714,284.16548326518989,93.812547523871530,80.709000000000003,-0.82066666666668198,1.1073596011470932,-0.49543954043917893,7.4625758263121747E-002
20240325183000,421.74748093314844,5.0253678760952631,0.90646181733877129,0,24.684070090302495,0,6.0588121135569732,1,1.6475297247330023,0,98.499507466191872,3.2606568416402975,8.4368632769717049,1.5550537701545808,1.3046255494509802,0.98181865284730130,0.87002320839915026,-2220.6550488668590,-8.5560339547986943E-003,113.67227375093022,207.82917032895941,248.71843657301434,311.36596858606083,93.792764686197913,82.063333333333333,-0.80900000000002592,1.0304958800714741,-0.47096091545950003,7.1699347224898166E-002
20240325190000,421.79382248444580,5.1150702037784654,0.87777253224685414,0,27.369718299646944,0,15.681276170068493,1,1.4061442500197698,0,91.549574591495571,3.6373241668870055,11.300183362308376,1.7643969240163537,1.2830571075900965,0.99747008662869463,0.85652141541236948,-1910.6117606020148,-9.9444588334436333E-003,110.84741669179117,202.66443068290332,242.53756230959652,303.62824745748350,93.767215751337176,82.556666666666672,-0.65266666666667561,1.0136696164054224,-0.31299204189070906,9.9642872509871361E-002
20240325193000,422.00800410660480,5.2356667908063086,0.79779081521480488,0,24.762042151497432,0,22.722147179593023,1,1.7209545585311683,0,80.959905149992323,3.3795742176779013,10.757492215234418,1.5954445096465604,1.2304083567540125,0.90438757644130618,0.81690861032966200,-1831.5654764002982,-1.0373639514838426E-002,115.42769107027793,211.03863305036589,252.55934374232115,316.17432858340783,93.722283684895842,83.939999999999998,-0.56766666666663923,0.93909151582383121,-0.20736610751680473,8.5351502844503213E-002
20240325200000,422.07587682527782,5.3655706340757021,0.74498968396601983,0,16.442418228697456,0,18.346689700818906,1,1.9845106714912639,1,73.450358803587548,3.8806970269472374,9.7349942811058376,1.7702226454845678,1.2487220049290730,0.93649856805444032,0.78978826253943923,-2491.6441442160180,-7.6254869878211460E-003,109.25913196038609,199.76053963646092,239.06234639112697,299.27768951168230,93.668343238715295,85.416666666666671,-0.47866666666669744,0.85830060313247891,-0.11817692396374468,6.6824323172285108E-002
20240325203000,422.32210966689678,5.5217704542681201,0.84600155707532620,0,-6.9454527485581847,2,13.145482184625465,1,1.7415870759895435,0,95.431273534628403,3.7497688665014510,9.8770018457174622,1.6656463735219473,1.3939172211043751,0.98336769454872952,0.84134017263495198,7132.8554309462825,2.6637298602138300E-003,110.52472713286828,202.07445125263598,241.83150761441559,302.74435076261494,93.704252994856773,88.576666666666668,-0.57799999999997453,0.66746369392449878,-0.25983130960594281,0.11975457944538163
20240325210000,422.45169828930921,5.7222330891987188,0.94367907782015481,0,5.6965770412512438,0,0.77983819610442229,1,1.3348660076536698,0,85.228390029507054,3.4898103131104796,8.7218371558363739,1.6421821719860830,1.1772730346000679,0.90261263434903993,0.88884427503726904,-10250.753581855271,-1.8535222652929300E-003,123.68422632623701,226.13421278511836,270.62489721995900,338.79025780084919,93.652711251424165,91.813333333333333,-0.58866666666665424,0.47797340337532890,-0.21705487362100939,0.17898895024759620
20240325213000,422.78410832614276,5.8748100927540063,0.72855364665299327,0,-10.324737257155265,0,1.1086903064906501,1,0.66858040911930872,0,93.054271056613544,3.4327036902844572,8.4884555717390349,1.6233374329020862,1.0972599568975745,0.82124856271008317,0.78139238249460197,3842.0382700871623,4.9452917082913276E-003,120.32906450887195,219.99990690899722,263.28369980982376,329.59994978153514,93.631091520833351,92.849999999999994,-0.38499999999999091,0.42369616353123091,0.42674961683485435,0.14487397538732744
20240325220000,424.17824606365571,6.0407014615320449,0.64339024188739646,0,14.831421450983083,2,1.7500197394740142,2,1.2379055517594693,0,86.781839283777160,3.3141036497225240,8.7782402921213425,1.4246974416260798,1.1560114119062090,0.82519718393086028,0.73551663164043501,-2226.6958811624677,-8.5328221786986330E-003,114.20436622726902,208.80200507789809,249.88267130203212,312.82345231367236,93.395887683593742,93.873333333333335,-0.18766666666670062,0.36831009223092681,2.1946832071939752,0.72515641240822948
20240325223000,424.62907887570105,6.1498062001908869,0.49757920670344891,0,-18.842944317814933,0,1.6105193623983864,1,0.98854455371343097,0,96.597148788159345,3.1417717238443537,7.7257001054228027,1.3091165921074308,0.99171931722825646,0.75447621733582404,0.64702631675056721,1193.1828249545329,1.5923796087765518E-002,110.73273135667036,202.45474931329085,242.28662726353949,303.31410655685585,93.400386603949656,94.383333333333340,-1.5333333333330756E-002,0.34190851944874678,2.8846799019707987,9.0081111208053663E-002